Location: Newark
(49.3000°N, 9.4667°E)
Time: 23:05:47
(UTC+00:00)

Tiros 1 - Pass Details

Date: 27 May 2019
Orbit: 631 x 664 km, 48.4° (Epoch: 17 June)

Event Time Altitude Azimuth Distance (km) Brightness Sun altitude
Rises 13:38:02 0° 283° (WNW) 2,946 10.9 50.8°
Reaches altitude 10° 13:40:28 10° 276° (W) 2,040 10.4 50.5°
Maximum altitude 13:44:50 39° 208° (SSW) 971 9.5 49.9°
Drops below altitude 10° 13:49:14 10° 139° (SE) 2,053 9.8 49.3°
Sets 13:51:41 0° 132° (SE) 2,967 10.4 48.9°
